TimeMST,TemperatureF,Dew PointF,Humidity,Sea Level PressureIn,VisibilityMPH,Wind Direction,Wind SpeedMPH,Gust SpeedMPH,PrecipitationIn,Events,Conditions,WindDirDegrees,DateUTC
12:15 AM,41.0,14.0,33,30.39,10.0,NW,6.9,-,N/A,,Clear,320,2013-03-02 07:15:00
12:35 AM,39.2,14.0,36,30.39,10.0,NW,10.4,16.1,N/A,,Clear,320,2013-03-02 07:35:00
12:55 AM,39.2,14.0,36,30.39,10.0,NW,12.7,19.6,N/A,,Clear,320,2013-03-02 07:55:00
1:15 AM,39.2,14.0,36,30.39,10.0,NNW,5.8,-,N/A,,Clear,340,2013-03-02 08:15:00
1:35 AM,39.2,14.0,36,30.39,10.0,NNW,6.9,-,N/A,,Clear,330,2013-03-02 08:35:00
1:55 AM,39.2,14.0,36,30.40,10.0,NNW,3.5,-,N/A,,Clear,330,2013-03-02 08:55:00
2:15 AM,39.2,14.0,36,30.39,10.0,NW,5.8,-,N/A,,Clear,310,2013-03-02 09:15:00
2:35 AM,37.4,14.0,38,30.39,10.0,NW,5.8,-,N/A,,Clear,320,2013-03-02 09:35:00
2:55 AM,37.4,15.8,41,30.38,10.0,WNW,8.1,-,N/A,,Clear,290,2013-03-02 09:55:00
3:15 AM,35.6,15.8,44,30.39,10.0,WNW,5.8,-,N/A,,Clear,300,2013-03-02 10:15:00
3:35 AM,35.6,15.8,44,30.39,10.0,WNW,8.1,-,N/A,,Clear,300,2013-03-02 10:35:00
3:55 AM,35.6,15.8,44,30.38,10.0,NW,6.9,-,N/A,,Clear,310,2013-03-02 10:55:00
4:15 AM,35.6,15.8,44,30.38,10.0,WNW,6.9,-,N/A,,Clear,300,2013-03-02 11:15:00
4:35 AM,32.0,15.8,51,30.39,10.0,WNW,4.6,-,N/A,,Clear,290,2013-03-02 11:35:00
4:55 AM,32.0,15.8,51,30.39,10.0,West,8.1,-,N/A,,Clear,270,2013-03-02 11:55:00
5:15 AM,32.0,15.8,51,30.39,10.0,West,6.9,-,N/A,,Clear,280,2013-03-02 12:15:00
5:35 AM,33.8,15.8,48,30.39,10.0,NW,3.5,-,N/A,,Clear,310,2013-03-02 12:35:00
5:55 AM,35.6,15.8,44,30.39,10.0,WNW,9.2,-,N/A,,Clear,290,2013-03-02 12:55:00
6:15 AM,35.6,15.8,44,30.40,10.0,North,4.6,-,N/A,,Clear,350,2013-03-02 13:15:00
6:35 AM,32.0,15.8,51,30.41,10.0,NW,6.9,-,N/A,,Clear,310,2013-03-02 13:35:00
6:55 AM,35.6,15.8,44,30.41,10.0,NW,6.9,-,N/A,,Clear,320,2013-03-02 13:55:00
7:15 AM,37.4,17.6,45,30.42,10.0,NW,8.1,-,N/A,,Clear,310,2013-03-02 14:15:00
7:35 AM,39.2,17.6,42,30.42,10.0,NNW,5.8,-,N/A,,Clear,330,2013-03-02 14:35:00
7:55 AM,39.2,17.6,42,30.43,10.0,NW,9.2,-,N/A,,Clear,320,2013-03-02 14:55:00
8:15 AM,41.0,17.6,39,30.43,10.0,NW,9.2,-,N/A,,Clear,320,2013-03-02 15:15:00
8:35 AM,42.8,17.6,36,30.43,10.0,NW,12.7,18.4,N/A,,Clear,310,2013-03-02 15:35:00
8:55 AM,44.6,17.6,34,30.43,10.0,NW,13.8,-,N/A,,Clear,320,2013-03-02 15:55:00
9:15 AM,46.4,17.6,32,30.43,10.0,NW,11.5,16.1,N/A,,Clear,310,2013-03-02 16:15:00
9:35 AM,46.4,17.6,32,30.44,10.0,NW,10.4,-,N/A,,Clear,310,2013-03-02 16:35:00
9:55 AM,48.2,17.6,30,30.43,10.0,WNW,8.1,-,N/A,,Clear,300,2013-03-02 16:55:00
10:15 AM,48.2,17.6,30,30.43,10.0,NNW,8.1,-,N/A,,Clear,330,2013-03-02 17:15:00
10:35 AM,50.0,17.6,28,30.43,10.0,NW,6.9,-,N/A,,Clear,320,2013-03-02 17:35:00
10:55 AM,51.8,15.8,24,30.43,10.0,North,6.9,-,N/A,,Clear,360,2013-03-02 17:55:00
11:15 AM,53.6,14.0,21,30.41,10.0,North,12.7,-,N/A,,Clear,360,2013-03-02 18:15:00
11:35 AM,53.6,14.0,21,30.41,10.0,NW,9.2,-,N/A,,Clear,320,2013-03-02 18:35:00
11:55 AM,55.4,14.0,20,30.40,10.0,NW,5.8,-,N/A,,Clear,310,2013-03-02 18:55:00
12:15 PM,55.4,14.0,20,30.39,10.0,NW,10.4,-,N/A,,Clear,320,2013-03-02 19:15:00
12:35 PM,57.2,14.0,18,30.38,10.0,North,9.2,-,N/A,,Clear,350,2013-03-02 19:35:00
12:55 PM,57.2,12.2,17,30.37,10.0,North,9.2,-,N/A,,Clear,350,2013-03-02 19:55:00
1:15 PM,57.2,10.4,16,30.36,10.0,NNW,11.5,16.1,N/A,,Clear,330,2013-03-02 20:15:00
1:35 PM,57.2,10.4,16,30.36,10.0,NW,11.5,18.4,N/A,,Unknown,320,2013-03-02 20:35:00
1:55 PM,59.0,10.4,15,30.35,10.0,North,9.2,16.1,N/A,,Clear,10,2013-03-02 20:55:00
2:15 PM,57.2,10.4,16,30.35,10.0,NNW,10.4,16.1,N/A,,Clear,340,2013-03-02 21:15:00
2:35 PM,57.2,10.4,16,30.34,10.0,NNW,10.4,16.1,N/A,,Clear,340,2013-03-02 21:35:00
2:55 PM,57.2,12.2,17,30.34,10.0,NW,10.4,-,N/A,,Clear,320,2013-03-02 21:55:00
3:15 PM,57.2,10.4,16,30.34,10.0,North,10.4,17.3,N/A,,Clear,350,2013-03-02 22:15:00
3:35 PM,57.2,12.2,17,30.33,10.0,NNW,9.2,-,N/A,,Clear,340,2013-03-02 22:35:00
3:55 PM,57.2,14.0,18,30.33,10.0,NNW,8.1,16.1,N/A,,Clear,340,2013-03-02 22:55:00
4:15 PM,57.2,14.0,18,30.33,10.0,NNW,10.4,-,N/A,,Clear,340,2013-03-02 23:15:00
4:35 PM,57.2,14.0,18,30.33,10.0,North,9.2,-,N/A,,Clear,360,2013-03-02 23:35:00
4:55 PM,55.4,14.0,20,30.33,10.0,North,6.9,-,N/A,,Clear,360,2013-03-02 23:55:00
5:15 PM,55.4,12.2,18,30.33,10.0,NNW,8.1,16.1,N/A,,Clear,340,2013-03-03 00:15:00
5:35 PM,53.6,12.2,19,30.33,10.0,NNW,4.6,-,N/A,,Clear,340,2013-03-03 00:35:00
5:55 PM,51.8,12.2,21,30.33,10.0,Calm,Calm,-,N/A,,Clear,0,2013-03-03 00:55:00
6:35 PM,48.2,12.2,24,30.32,10.0,Calm,Calm,-,N/A,,Clear,0,2013-03-03 01:35:00
6:55 PM,48.2,10.4,22,30.32,10.0,Calm,Calm,-,N/A,,Clear,0,2013-03-03 01:55:00
7:15 PM,50.0,8.6,19,30.31,10.0,Calm,Calm,-,N/A,,Clear,0,2013-03-03 02:15:00
7:35 PM,50.0,8.6,19,30.31,10.0,Calm,Calm,-,N/A,,Clear,0,2013-03-03 02:35:00
7:55 PM,50.0,8.6,19,30.31,10.0,Calm,Calm,-,N/A,,Clear,0,2013-03-03 02:55:00
8:15 PM,50.0,8.6,19,30.30,10.0,West,3.5,-,N/A,,Clear,260,2013-03-03 03:15:00
8:35 PM,48.2,10.4,22,30.30,10.0,WNW,8.1,-,N/A,,Clear,300,2013-03-03 03:35:00
8:55 PM,46.4,10.4,23,30.30,10.0,NW,3.5,-,N/A,,Clear,310,2013-03-03 03:55:00
9:15 PM,46.4,10.4,23,30.30,10.0,Calm,Calm,-,N/A,,Clear,0,2013-03-03 04:15:00
9:35 PM,41.0,10.4,29,30.30,10.0,SSW,6.9,-,N/A,,Clear,210,2013-03-03 04:35:00
9:55 PM,39.2,12.2,33,30.29,10.0,SSW,6.9,-,N/A,,Clear,210,2013-03-03 04:55:00
10:15 PM,39.2,14.0,36,30.29,10.0,SW,10.4,-,N/A,,Clear,220,2013-03-03 05:15:00
10:35 PM,41.0,14.0,33,30.29,10.0,SW,10.4,-,N/A,,Clear,220,2013-03-03 05:35:00
10:55 PM,41.0,14.0,33,30.28,10.0,SW,10.4,-,N/A,,Clear,230,2013-03-03 05:55:00
11:15 PM,41.0,14.0,33,30.27,10.0,SW,8.1,-,N/A,,Clear,230,2013-03-03 06:15:00
11:35 PM,41.0,14.0,33,30.26,10.0,SW,10.4,-,N/A,,Clear,230,2013-03-03 06:35:00
11:55 PM,42.8,14.0,31,30.26,10.0,WSW,10.4,-,N/A,,Clear,240,2013-03-03 06:55:00